Zurück zum Katalog

STARLINK-2110

AktivKommunikationVLEO
NORAD 47389·PAYLOAD·🇺🇸 United States

Gestartet Jan 20, 2021 von Cape Canaveral Space Force Station

Loading…

Nächste Überflüge (nächste 24 Stunden)

TLE

AktuellSource: CelesTrak SupGP

Epoche: Sep 15, 2026, 01:52 UTC

1 47389C 21005AS  26258.07826389  .00014085  00000+0  36865-3 0  2581
2 47389  53.1539 233.3961 0004727  46.6261 224.9577 15.38139528    13

Verfolge STARLINK-2110 in Echtzeit mit AllMySat

Download on the App Store